,,Stat5,,Stat1,,Stat2,,Stat3,,Stat4,,Wind1,,Wind1,
time,status,PA1M_AVG,status,PR1M_SUM,status,RH1M_AVG,status,SR1M_AVG,status,TA1M_AVG,status,W1dAve1m,status,W1sAve1m,
2001-03-08, 00:00:01,VALID,918.421,VALID,0,VALID,98.5621,VALID,-0.0169808,VALID,20.0136,VALID,268,VALID,0,
2001-03-08, 00:01:01,VALID,918.414,VALID,0.2,VALID,98.5354,VALID,-0.0339617,VALID,20.0031,VALID,268,VALID,0,
2001-03-08, 00:02:00,VALID,918.408,VALID,0,VALID,98.4947,VALID,0,VALID,20.0198,VALID,270,VALID,0,
2001-03-08, 00:03:00,VALID,918.393,VALID,0,VALID,98.4489,VALID,-0.0169808,VALID,20.0034,VALID,271,VALID,0,
2001-03-08, 00:04:00,VALID,918.372,VALID,0,VALID,98.4514,VALID,-0.0679233,VALID,20.0133,VALID,271,VALID,0,
2001-03-08, 00:05:00,VALID,918.37,VALID,0,VALID,98.3739,VALID,-0.0509425,VALID,19.9775,VALID,276,VALID,0,
2001-03-08, 00:06:01,VALID,918.344,VALID,0,VALID,98.3955,VALID,-0.0169808,VALID,20.0036,VALID,281,VALID,0,
2001-03-08, 00:07:00,VALID,918.331,VALID,0,VALID,98.4718,VALID,-0.0339617,VALID,20.0198,VALID,253,VALID,0.1492,
2001-03-08, 00:08:00,VALID,918.309,VALID,0,VALID,98.4794,VALID,-0.0339617,VALID,20.0451,VALID,102,VALID,0.355769,
2001-03-08, 00:09:00,VALID,918.307,VALID,0,VALID,98.5048,VALID,0,VALID,20.0417,VALID,101,VALID,0.168069,
2001-03-08, 00:10:00,VALID,918.299,VALID,0,VALID,98.5277,VALID,0,VALID,20.0645,VALID,101,VALID,0,
2001-03-08, 00:11:00,VALID,918.29,VALID,0,VALID,98.5366,VALID,-0.0339617,VALID,20.0615,VALID,101,VALID,0,
2001-03-08, 00:12:00,VALID,918.263,VALID,0,VALID,98.5583,VALID,-0.0679233,VALID,20.0812,VALID,101,VALID,0,
2001-03-08, 00:13:01,VALID,918.263,VALID,0,VALID,98.5519,VALID,-0.0679233,VALID,20.0809,VALID,101,VALID,0,
2001-03-08, 00:14:00,VALID,918.262,VALID,0,VALID,98.5214,VALID,-0.0849042,VALID,20.0551,VALID,101,VALID,0,
2001-03-08, 00:15:00,VALID,918.262,VALID,0,VALID,98.4387,VALID,-0.0509425,VALID,20.0198,VALID,101,VALID,0,
2001-03-08, 00:16:00,VALID,918.243,VALID,0,VALID,98.4642,VALID,-0.0679233,VALID,20.0066,VALID,101,VALID,0,
2001-03-08, 00:17:01,VALID,918.232,VALID,0,VALID,98.4718,VALID,-0.0679233,VALID,20.0133,VALID,101,VALID,0,
2001-03-08, 00:18:00,VALID,918.215,VALID,0,VALID,98.4591,VALID,-0.0679233,VALID,20.0036,VALID,101,VALID,0,
2001-03-08, 00:19:00,VALID,918.193,VALID,0,VALID,98.501,VALID,-0.0339617,VALID,20.0163,VALID,101,VALID,0,
2001-03-08, 00:20:00,VALID,918.181,VALID,0,VALID,98.5354,VALID,-0.0679233,VALID,20.0158,VALID,101,VALID,0,
2001-03-08, 00:21:01,VALID,918.17,VALID,0,VALID,98.5303,VALID,-0.0169808,VALID,20.0163,VALID,101,VALID,0,
2001-03-08, 00:22:00,VALID,918.141,VALID,0,VALID,98.5137,VALID,-0.0169808,VALID,20.0071,VALID,101,VALID,0,
2001-03-08, 00:23:01,VALID,918.149,VALID,0,VALID,98.5023,VALID,-0.0339617,VALID,20.0007,VALID,101,VALID,0,
2001-03-08, 00:24:00,VALID,918.123,VALID,0,VALID,98.5163,VALID,-0.0509425,VALID,20.0034,VALID,101,VALID,0,
2001-03-08, 00:25:00,VALID,918.102,VALID,0,VALID,98.529,VALID,-0.0509425,VALID,20.0004,VALID,101,VALID,0,
2001-03-08, 00:26:00,VALID,918.092,VALID,0,VALID,98.515,VALID,-0.0509425,VALID,19.9872,VALID,101,VALID,0,
2001-03-08, 00:27:00,VALID,918.074,VALID,0,VALID,98.4807,VALID,-0.0509425,VALID,19.9611,VALID,101,VALID,0,
2001-03-08, 00:28:00,VALID,918.068,VALID,0,VALID,98.4476,VALID,-0.0339617,VALID,19.9485,VALID,101,VALID,0,
2001-03-08, 00:29:00,VALID,918.04,VALID,0,VALID,98.4578,VALID,-0.0509425,VALID,19.9261,VALID,101,VALID,0,
2001-03-08, 00:30:00,VALID,918.021,VALID,0,VALID,98.4807,VALID,-0.0509425,VALID,19.9288,VALID,99,VALID,0,
2001-03-08, 00:31:01,VALID,918.01,VALID,0,VALID,98.454,VALID,-0.0509425,VALID,19.9062,VALID,77,VALID,0,
2001-03-08, 00:32:00,VALID,917.981,VALID,0,VALID,98.4425,VALID,-0.0339617,VALID,19.9067,VALID,76,VALID,0,
2001-03-08, 00:33:00,VALID,917.954,VALID,0,VALID,98.4832,VALID,-0.0339617,VALID,19.8935,VALID,69,VALID,0,
2001-03-08, 00:34:00,VALID,917.93,VALID,0,VALID,98.5048,VALID,-0.0509425,VALID,19.9005,VALID,89,VALID,0.485403,
2001-03-08, 00:35:01,VALID,917.91,VALID,0,VALID,98.5455,VALID,-0.0509425,VALID,19.8965,VALID,89,VALID,0.846423,
2001-03-08, 00:36:00,VALID,917.898,VALID,0,VALID,98.6104,VALID,-0.0849042,VALID,19.9293,VALID,98,VALID,0.371311,
2001-03-08, 00:37:00,VALID,917.898,VALID,0,VALID,98.6371,VALID,-0.0339617,VALID,19.9323,VALID,97,VALID,0,
2001-03-08, 00:38:01,VALID,917.877,VALID,0,VALID,98.6167,VALID,-0.0679233,VALID,19.9296,VALID,322,VALID,0.0261949,
2001-03-08, 00:39:00,VALID,917.858,VALID,0,VALID,98.5977,VALID,-0.0339617,VALID,19.903,VALID,289,VALID,0,
2001-03-08, 00:40:00,VALID,917.85,VALID,0,VALID,98.5977,VALID,-0.0509425,VALID,19.9008,VALID,289,VALID,0,
2001-03-08, 00:41:01,VALID,917.84,VALID,0,VALID,98.6524,VALID,-0.0509425,VALID,19.9102,VALID,289,VALID,0,
2001-03-08, 00:42:00,VALID,917.825,VALID,0,VALID,98.7108,VALID,-0.0509425,VALID,19.936,VALID,175,VALID,0.376803,
2001-03-08, 00:43:00,VALID,917.818,VALID,0,VALID,98.6969,VALID,-0.0849042,VALID,19.9231,VALID,104,VALID,0.59308,
2001-03-08, 00:44:00,VALID,917.82,VALID,0,VALID,98.7197,VALID,-0.0679233,VALID,19.936,VALID,86,VALID,0.45957,
2001-03-08, 00:45:00,VALID,917.798,VALID,0,VALID,98.7287,VALID,-0.0339617,VALID,19.9393,VALID,91,VALID,0.551758,
2001-03-08, 00:46:01,VALID,917.802,VALID,0,VALID,98.7274,VALID,-0.101885,VALID,19.9328,VALID,101,VALID,0.378711,
2001-03-08, 00:47:00,VALID,917.793,VALID,0.2,VALID,98.7439,VALID,-0.0849042,VALID,19.9293,VALID,103,VALID,0.394637,
2001-03-08, 00:48:00,VALID,917.783,VALID,0,VALID,98.7388,VALID,-0.0339617,VALID,19.9358,VALID,103,VALID,0.0169271,
2001-03-08, 00:49:01,VALID,917.77,VALID,0,VALID,98.7452,VALID,-0.0509425,VALID,19.9196,VALID,103,VALID,0,
2001-03-08, 00:50:00,VALID,917.779,VALID,0,VALID,98.7643,VALID,-0.101885,VALID,19.9259,VALID,104,VALID,0,
2001-03-08, 00:51:00,VALID,917.767,VALID,0,VALID,98.7477,VALID,0.0509425,VALID,19.9181,VALID,62,VALID,0.416596,
2001-03-08, 00:52:01,VALID,917.758,VALID,0,VALID,98.7096,VALID,0.0169808,VALID,19.8761,VALID,35,VALID,0.26262,
2001-03-08, 00:53:01,VALID,917.746,VALID,0,VALID,98.7414,VALID,0.0339617,VALID,19.8729,VALID,27,VALID,0.236178,
2001-03-08, 00:54:01,VALID,917.76,VALID,0,VALID,98.7108,VALID,-0.0169808,VALID,19.8317,VALID,333,VALID,0.314955,
2001-03-08, 00:55:00,VALID,917.745,VALID,0,VALID,98.707,VALID,-0.0509425,VALID,19.8091,VALID,312,VALID,0.313939,
2001-03-08, 00:56:01,VALID,917.751,VALID,0,VALID,98.7058,VALID,-0.0339617,VALID,19.7802,VALID,306,VALID,0.160256,
2001-03-08, 00:57:00,VALID,917.742,VALID,0,VALID,98.7096,VALID,-0.0509425,VALID,19.7671,VALID,306,VALID,0.152539,
2001-03-08, 00:58:00,VALID,917.728,VALID,0,VALID,98.7248,VALID,-0.0169808,VALID,19.7609,VALID,306,VALID,0,
2001-03-08, 00:59:01,VALID,917.726,VALID,0,VALID,98.7515,VALID,-0.0509425,VALID,19.7611,VALID,306,VALID,0,
2001-03-08, 01:00:01,VALID,917.717,VALID,0,VALID,98.8011,VALID,-0.0849042,VALID,19.7835,VALID,306,VALID,0,
2001-03-08, 01:01:00,VALID,917.712,VALID,0,VALID,98.8266,VALID,-0.0509425,VALID,19.8066,VALID,306,VALID,0,
2001-03-08, 01:02:00,VALID,917.698,VALID,0,VALID,98.8316,VALID,-0.0509425,VALID,19.8257,VALID,306,VALID,0,
2001-03-08, 01:03:01,VALID,917.697,VALID,0,VALID,98.8393,VALID,-0.101885,VALID,19.8287,VALID,306,VALID,0,
2001-03-08, 01:04:01,VALID,917.666,VALID,0,VALID,98.852,VALID,-0.0509425,VALID,19.8453,VALID,306,VALID,0,
2001-03-08, 01:05:01,VALID,917.669,VALID,0,VALID,98.8545,VALID,-0.101885,VALID,19.8488,VALID,306,VALID,0,
2001-03-08, 01:06:01,VALID,917.648,VALID,0,VALID,98.838,VALID,-0.0849042,VALID,19.8297,VALID,306,VALID,0,
2001-03-08, 01:07:01,VALID,917.633,VALID,0,VALID,98.8075,VALID,-0.0679233,VALID,19.7939,VALID,306,VALID,0,
2001-03-08, 01:08:01,VALID,917.611,VALID,0,VALID,98.8024,VALID,-0.0849042,VALID,19.7877,VALID,306,VALID,0,
2001-03-08, 01:09:01,VALID,917.606,VALID,0,VALID,98.8266,VALID,-0.0679233,VALID,19.7842,VALID,306,VALID,0,
2001-03-08, 01:10:01,VALID,917.591,VALID,0,VALID,98.8304,VALID,-0.0679233,VALID,19.7745,VALID,306,VALID,0,
2001-03-08, 01:11:01,VALID,917.564,VALID,0,VALID,98.8342,VALID,-0.0679233,VALID,19.7713,VALID,306,VALID,0,
2001-03-08, 01:12:01,VALID,917.547,VALID,0,VALID,98.8647,VALID,-0.0509425,VALID,19.8006,VALID,87,VALID,0.387458,
2001-03-08, 01:13:01,VALID,917.517,VALID,0,VALID,98.8901,VALID,-0.0679233,VALID,19.8158,VALID,120,VALID,0.681691,
2001-03-08, 01:14:01,VALID,917.501,VALID,0,VALID,98.9003,VALID,-0.0339617,VALID,19.8456,VALID,116,VALID,0.678486,
2001-03-08, 01:15:01,VALID,917.48,VALID,0,VALID,98.8774,VALID,-0.0169808,VALID,19.8257,VALID,128,VALID,0.689103,
2001-03-08, 01:16:01,VALID,917.465,VALID,0,VALID,98.8456,VALID,-0.0679233,VALID,19.8033,VALID,126,VALID,0.636384,
2001-03-08, 01:17:01,VALID,917.452,VALID,0,VALID,98.8431,VALID,-0.0339617,VALID,19.771,VALID,128,VALID,0.724219,
2001-03-08, 01:18:01,VALID,917.429,VALID,0,VALID,98.8342,VALID,-0.0849042,VALID,19.7648,VALID,129,VALID,0.79375,
2001-03-08, 01:19:01,VALID,917.411,VALID,0,VALID,98.8316,VALID,-0.0679233,VALID,19.7417,VALID,136,VALID,0.844922,
2001-03-08, 01:20:01,VALID,917.384,VALID,0,VALID,98.8406,VALID,-0.0679233,VALID,19.7358,VALID,135,VALID,0.617821,
2001-03-08, 01:21:01,VALID,917.355,VALID,0,VALID,98.8444,VALID,-0.101885,VALID,19.7191,VALID,150,VALID,0.363064,
2001-03-08, 01:22:01,VALID,917.324,VALID,0,VALID,98.8596,VALID,-0.0849042,VALID,19.7161,VALID,157,VALID,0.156473,
2001-03-08, 01:23:01,VALID,917.296,VALID,0,VALID,98.8634,VALID,-0.0849042,VALID,19.7034,VALID,157,VALID,0.138936,
2001-03-08, 01:24:00,VALID,917.271,VALID,0,VALID,98.8736,VALID,-0.0849042,VALID,19.6967,VALID,133,VALID,0.150338,
2001-03-08, 01:25:00,VALID,917.25,VALID,0,VALID,98.894,VALID,-0.101885,VALID,19.697,VALID,71,VALID,0.286458,
2001-03-08, 01:26:00,VALID,917.234,VALID,0,VALID,98.8914,VALID,-0.0339617,VALID,19.6841,VALID,86,VALID,0.0645032,
2001-03-08, 01:27:00,VALID,917.236,VALID,0,VALID,98.899,VALID,-0.0849042,VALID,19.6873,VALID,89,VALID,0.0428571,
2001-03-08, 01:28:00,VALID,917.221,VALID,0,VALID,98.9054,VALID,-0.101885,VALID,19.6779,VALID,118,VALID,0.344572,
2001-03-08, 01:29:00,VALID,917.208,VALID,0,VALID,98.9219,VALID,-0.0849042,VALID,19.6808,VALID,122,VALID,0.160857,
2001-03-08, 01:30:00,VALID,917.204,VALID,0,VALID,98.9474,VALID,-0.101885,VALID,19.6875,VALID,123,VALID,0.145117,
2001-03-08, 01:31:00,VALID,917.186,VALID,0,VALID,98.9728,VALID,-0.0679233,VALID,19.7263,VALID,146,VALID,0.17652,
2001-03-08, 01:32:00,VALID,917.174,VALID,0,VALID,98.941,VALID,-0.0849042,VALID,19.7002,VALID,146,VALID,0.43201,
2001-03-08, 01:33:00,VALID,917.152,VALID,0,VALID,98.9372,VALID,-0.0679233,VALID,19.6905,VALID,132,VALID,0.501736,
2001-03-08, 01:34:00,VALID,917.132,VALID,0,VALID,98.9741,VALID,-0.101885,VALID,19.7233,VALID,92,VALID,0.654492,
2001-03-08, 01:35:00,VALID,917.108,VALID,0,VALID,98.9563,VALID,-0.0679233,VALID,19.697,VALID,87,VALID,0.570117,
2001-03-08, 01:36:00,VALID,917.101,VALID,0,VALID,98.9486,VALID,-0.0679233,VALID,19.694,VALID,92,VALID,0.388021,
2001-03-08, 01:37:00,VALID,917.082,VALID,0,VALID,98.9766,VALID,-0.0509425,VALID,19.7136,VALID,91,VALID,0.319111,
2001-03-08, 01:38:00,VALID,917.079,VALID,0,VALID,98.9766,VALID,-0.0679233,VALID,19.7099,VALID,88,VALID,0.132813,
2001-03-08, 01:39:00,VALID,917.065,VALID,0,VALID,98.9677,VALID,-0.0849042,VALID,19.7037,VALID,88,VALID,0.255809,
2001-03-08, 01:40:00,VALID,917.058,VALID,0,VALID,98.9397,VALID,-0.0679233,VALID,19.6714,VALID,90,VALID,0.209498,
2001-03-08, 01:41:00,VALID,917.047,VALID,0,VALID,98.9664,VALID,-0.0849042,VALID,19.6679,VALID,90,VALID,0,
2001-03-08, 01:42:00,VALID,917.03,VALID,0,VALID,99.0173,VALID,-0.0679233,VALID,19.7196,VALID,97,VALID,0.0917969,
2001-03-08, 01:43:00,VALID,917.014,VALID,0,VALID,98.9766,VALID,-0.0339617,VALID,19.7104,VALID,122,VALID,0.426649,
2001-03-08, 01:44:00,VALID,916.986,VALID,0,VALID,98.9677,VALID,-0.0679233,VALID,19.6813,VALID,129,VALID,0.629366,
2001-03-08, 01:45:00,VALID,916.983,VALID,0,VALID,98.9614,VALID,-0.101885,VALID,19.6649,VALID,89,VALID,0.619088,
2001-03-08, 01:46:00,VALID,916.956,VALID,0,VALID,98.9423,VALID,-0.0679233,VALID,19.6488,VALID,96,VALID,0.0897436,
2001-03-08, 01:47:00,VALID,916.952,VALID,0,VALID,98.9626,VALID,-0.0679233,VALID,19.6488,VALID,121,VALID,0.0112179,
2001-03-08, 01:48:00,VALID,916.93,VALID,0,VALID,98.9982,VALID,-0.101885,VALID,19.6716,VALID,127,VALID,0.0935497,
2001-03-08, 01:49:00,VALID,916.924,VALID,0,VALID,98.9703,VALID,-0.0849042,VALID,19.6485,VALID,150,VALID,0,
2001-03-08, 01:50:00,VALID,916.891,VALID,0,VALID,98.9703,VALID,-0.0679233,VALID,19.6386,VALID,150,VALID,0,
2001-03-08, 01:51:00,VALID,916.888,VALID,0,VALID,98.997,VALID,-0.0509425,VALID,19.6518,VALID,150,VALID,0,
2001-03-08, 01:52:00,VALID,916.861,VALID,0,VALID,99.0198,VALID,-0.0679233,VALID,19.6709,VALID,150,VALID,0,
2001-03-08, 01:53:00,VALID,916.855,VALID,0,VALID,99.016,VALID,-0.0509425,VALID,19.6806,VALID,150,VALID,0,
2001-03-08, 01:54:00,VALID,916.846,VALID,0,VALID,99.0109,VALID,-0.0509425,VALID,19.6935,VALID,146,VALID,0,
2001-03-08, 01:55:00,VALID,916.818,VALID,0,VALID,98.9792,VALID,-0.0679233,VALID,19.6905,VALID,146,VALID,0,
2001-03-08, 01:56:00,VALID,916.813,VALID,0,VALID,98.9601,VALID,-0.0509425,VALID,19.6714,VALID,151,VALID,0,
2001-03-08, 01:57:00,VALID,916.787,VALID,0,VALID,98.9728,VALID,-0.0849042,VALID,19.655,VALID,157,VALID,0,
2001-03-08, 01:58:00,VALID,916.774,VALID,0,VALID,99.0211,VALID,-0.0679233,VALID,19.7069,VALID,146,VALID,0.50601,
2001-03-08, 01:59:00,VALID,916.741,VALID,0,VALID,98.9982,VALID,-0.0169808,VALID,19.6806,VALID,136,VALID,0.567909,
2001-03-08, 02:00:00,VALID,916.735,VALID,0,VALID,99.0084,VALID,-0.0849042,VALID,19.697,VALID,130,VALID,0.657812,
2001-03-08, 02:01:00,VALID,916.69,VALID,0,VALID,99.002,VALID,-0.0679233,VALID,19.6808,VALID,118,VALID,0.791324,
2001-03-08, 02:02:00,VALID,916.667,VALID,0,VALID,98.997,VALID,-0.0679233,VALID,19.6873,VALID,122,VALID,0.751002,
2001-03-08, 02:03:00,VALID,916.653,VALID,0,VALID,98.9855,VALID,-0.0679233,VALID,19.6547,VALID,139,VALID,0.653516,
2001-03-08, 02:04:00,VALID,916.628,VALID,0,VALID,98.9499,VALID,-0.0849042,VALID,19.6483,VALID,157,VALID,0.451014,
2001-03-08, 02:05:00,VALID,916.6,VALID,0,VALID,98.9397,VALID,-0.0339617,VALID,19.6324,VALID,169,VALID,0.453758,
2001-03-08, 02:06:00,VALID,916.584,VALID,0,VALID,98.9346,VALID,-0.0679233,VALID,19.6068,VALID,195,VALID,0.288194,
2001-03-08, 02:07:00,VALID,916.551,VALID,0,VALID,98.9499,VALID,-0.101885,VALID,19.5869,VALID,191,VALID,0.130664,
2001-03-08, 02:08:00,VALID,916.532,VALID,0,VALID,98.9346,VALID,-0.118866,VALID,19.5879,VALID,191,VALID,0.176758,
2001-03-08, 02:09:00,VALID,916.494,VALID,0,VALID,98.9614,VALID,-0.101885,VALID,19.5809,VALID,190,VALID,0.0342548,
2001-03-08, 02:10:00,VALID,916.476,VALID,0,VALID,98.9677,VALID,-0.101885,VALID,19.5812,VALID,186,VALID,0.287059,
2001-03-08, 02:11:00,VALID,916.461,VALID,0,VALID,98.9537,VALID,-0.0679233,VALID,19.5713,VALID,161,VALID,0.446205,
2001-03-08, 02:12:00,VALID,916.434,VALID,0,VALID,98.9639,VALID,-0.101885,VALID,19.5842,VALID,152,VALID,0.321314,
2001-03-08, 02:13:00,VALID,916.405,VALID,0,VALID,98.9575,VALID,-0.118866,VALID,19.5877,VALID,162,VALID,0.32977,
2001-03-08, 02:14:00,VALID,916.39,VALID,0,VALID,98.9626,VALID,-0.101885,VALID,19.5777,VALID,160,VALID,0.627467,
2001-03-08, 02:15:00,VALID,916.365,VALID,0,VALID,98.9385,VALID,-0.0849042,VALID,19.5678,VALID,174,VALID,0.895182,
2001-03-08, 02:16:00,VALID,916.338,VALID,0,VALID,98.9296,VALID,-0.101885,VALID,19.5586,VALID,183,VALID,0.519314,
2001-03-08, 02:17:00,VALID,916.327,VALID,0,VALID,98.9397,VALID,-0.0679233,VALID,19.5491,VALID,185,VALID,1.00988,
2001-03-08, 02:18:00,VALID,916.292,VALID,0,VALID,98.9461,VALID,-0.0849042,VALID,19.5357,VALID,201,VALID,0.522382,
2001-03-08, 02:19:00,VALID,916.267,VALID,0,VALID,98.9817,VALID,-0.0849042,VALID,19.5457,VALID,199,VALID,0.0160256,
2001-03-08, 02:20:00,VALID,916.242,VALID,0,VALID,98.9804,VALID,-0.101885,VALID,19.5322,VALID,191,VALID,0.00981571,
2001-03-08, 02:21:00,VALID,916.219,VALID,0,VALID,98.9614,VALID,0.0679233,VALID,19.5474,VALID,163,VALID,0.680088,
2001-03-08, 02:22:00,VALID,916.196,VALID,0,VALID,98.9486,VALID,0.0849042,VALID,19.5273,VALID,176,VALID,0.867857,
2001-03-08, 02:23:00,VALID,916.178,VALID,0,VALID,98.955,VALID,0.0849042,VALID,19.5116,VALID,185,VALID,0.676758,
2001-03-08, 02:24:00,VALID,916.14,VALID,0,VALID,98.9741,VALID,0.0509425,VALID,19.5116,VALID,196,VALID,0.82793,
2001-03-08, 02:25:00,VALID,916.114,VALID,0,VALID,98.997,VALID,0.0339617,VALID,19.5049,VALID,213,VALID,0.841797,
2001-03-08, 02:26:00,VALID,916.087,VALID,0,VALID,99.0135,VALID,0.0169808,VALID,19.499,VALID,212,VALID,0.76478,
2001-03-08, 02:27:00,VALID,916.066,VALID,0,VALID,99.0313,VALID,0.0339617,VALID,19.5047,VALID,210,VALID,0.658637,
2001-03-08, 02:28:00,VALID,916.019,VALID,0,VALID,99.0211,VALID,0.0849042,VALID,19.5017,VALID,217,VALID,0.561607,
2001-03-08, 02:29:00,VALID,915.982,VALID,0,VALID,99.0287,VALID,0.0509425,VALID,19.4952,VALID,220,VALID,0.851774,
2001-03-08, 02:30:00,VALID,915.942,VALID,0,VALID,99.044,VALID,0.0339617,VALID,19.4888,VALID,221,VALID,0.979096,
2001-03-08, 02:31:00,VALID,915.9,VALID,0,VALID,99.0402,VALID,0.0849042,VALID,19.4888,VALID,222,VALID,1.2472,
2001-03-08, 02:32:00,VALID,915.876,VALID,0,VALID,99.0504,VALID,0.0679233,VALID,19.4724,VALID,218,VALID,1.16867,
2001-03-08, 02:33:00,VALID,915.851,VALID,0,VALID,99.0567,VALID,0.0509425,VALID,19.4761,VALID,219,VALID,0.914732,
2001-03-08, 02:34:00,VALID,915.819,VALID,0,VALID,99.0733,VALID,0.0339617,VALID,19.4662,VALID,228,VALID,1.00123,
2001-03-08, 02:35:00,VALID,915.789,VALID,0,VALID,99.0885,VALID,0.0339617,VALID,19.4629,VALID,229,VALID,1.0649,
2001-03-08, 02:36:00,VALID,915.745,VALID,0,VALID,99.1,VALID,-0.0849042,VALID,19.4808,VALID,232,VALID,1.08633,
2001-03-08, 02:37:00,VALID,915.715,VALID,0,VALID,99.1012,VALID,-0.0679233,VALID,19.4743,VALID,230,VALID,0.815667,
2001-03-08, 02:38:00,VALID,915.7,VALID,0,VALID,99.1063,VALID,-0.0849042,VALID,19.4674,VALID,223,VALID,0.978463,
2001-03-08, 02:39:00,VALID,915.663,VALID,0,VALID,99.1139,VALID,-0.0679233,VALID,19.4617,VALID,232,VALID,1.18815,
2001-03-08, 02:40:00,VALID,915.654,VALID,0,VALID,99.119,VALID,-0.0849042,VALID,19.4614,VALID,236,VALID,1.1498,
2001-03-08, 02:41:00,VALID,915.62,VALID,0,VALID,99.1318,VALID,-0.0169808,VALID,19.4547,VALID,230,VALID,0.995313,
2001-03-08, 02:42:00,VALID,915.591,VALID,0,VALID,99.1279,VALID,-0.0679233,VALID,19.4614,VALID,231,VALID,1.05008,
2001-03-08, 02:43:00,VALID,915.552,VALID,0,VALID,99.1356,VALID,-0.0339617,VALID,19.4619,VALID,240,VALID,1.17488,
2001-03-08, 02:44:00,VALID,915.537,VALID,0,VALID,99.1534,VALID,-0.0509425,VALID,19.4584,VALID,246,VALID,0.637277,
2001-03-08, 02:45:00,VALID,915.509,VALID,0,VALID,99.1635,VALID,-0.0849042,VALID,19.4614,VALID,228,VALID,1.31651,
2001-03-08, 02:46:00,VALID,915.481,VALID,0,VALID,99.1877,VALID,-0.0509425,VALID,19.455,VALID,230,VALID,1.13076,
2001-03-08, 02:47:00,VALID,915.452,VALID,0,VALID,99.1801,VALID,-0.0509425,VALID,19.4453,VALID,225,VALID,1.07669,
2001-03-08, 02:48:00,VALID,915.439,VALID,0,VALID,99.1877,VALID,-0.0679233,VALID,19.4356,VALID,221,VALID,0.913411,
2001-03-08, 02:49:00,VALID,915.432,VALID,0,VALID,99.1941,VALID,-0.101885,VALID,19.4294,VALID,231,VALID,1.15994,
2001-03-08, 02:50:00,VALID,915.412,VALID,0,VALID,99.1941,VALID,-0.0849042,VALID,19.4324,VALID,225,VALID,1.32169,
2001-03-08, 02:51:00,VALID,915.392,VALID,0,VALID,99.2042,VALID,-0.0849042,VALID,19.4299,VALID,225,VALID,0.977407,
2001-03-08, 02:52:00,VALID,915.38,VALID,0,VALID,99.203,VALID,-0.0509425,VALID,19.4162,VALID,217,VALID,0.613582,
2001-03-08, 02:53:00,VALID,915.353,VALID,0,VALID,99.2093,VALID,0,VALID,19.4063,VALID,223,VALID,1.05248,
2001-03-08, 02:54:00,VALID,915.32,VALID,0,VALID,99.2144,VALID,-0.0849042,VALID,19.4,VALID,224,VALID,0.68149,
2001-03-08, 02:55:00,VALID,915.295,VALID,0,VALID,99.2055,VALID,-0.0509425,VALID,19.3904,VALID,215,VALID,0.533482,
2001-03-08, 02:56:00,VALID,915.273,VALID,0,VALID,99.2093,VALID,-0.0679233,VALID,19.3839,VALID,210,VALID,0.574414,
2001-03-08, 02:57:00,VALID,915.238,VALID,0,VALID,99.2106,VALID,-0.0849042,VALID,19.3742,VALID,212,VALID,0.415625,
2001-03-08, 02:58:00,VALID,915.212,VALID,0,VALID,99.2068,VALID,-0.101885,VALID,19.3615,VALID,216,VALID,0.748242,
2001-03-08, 02:59:00,VALID,915.195,VALID,0,VALID,99.2195,VALID,-0.0339617,VALID,19.3548,VALID,223,VALID,1.10536,
2001-03-08, 03:00:00,VALID,915.163,VALID,0,VALID,99.2233,VALID,-0.0169808,VALID,19.3585,VALID,221,VALID,0.881944,
2001-03-08, 03:01:00,VALID,915.133,VALID,0,VALID,99.2271,VALID,-0.0509425,VALID,19.3518,VALID,200,VALID,0.876786,
2001-03-08, 03:02:00,VALID,915.11,VALID,0,VALID,99.2335,VALID,-0.0509425,VALID,19.3484,VALID,213,VALID,0.621199,
2001-03-08, 03:03:00,VALID,915.084,VALID,0,VALID,99.2246,VALID,0,VALID,19.3352,VALID,196,VALID,0.580659,
2001-03-08, 03:04:00,VALID,915.058,VALID,0,VALID,99.2347,VALID,-0.0509425,VALID,19.3322,VALID,202,VALID,0.615184,
2001-03-08, 03:05:00,VALID,915.038,VALID,0,VALID,99.2386,VALID,-0.0339617,VALID,19.3258,VALID,178,VALID,0.471755,
2001-03-08, 03:06:00,VALID,915.007,VALID,0,VALID,99.2437,VALID,-0.0679233,VALID,19.3352,VALID,179,VALID,0.757366,
2001-03-08, 03:07:00,VALID,914.986,VALID,0,VALID,99.2462,VALID,0,VALID,19.3193,VALID,171,VALID,0.942434,
2001-03-08, 03:08:00,VALID,914.969,VALID,0,VALID,99.2424,VALID,-0.0169808,VALID,19.3158,VALID,193,VALID,0.583534,
2001-03-08, 03:09:00,VALID,914.952,VALID,0,VALID,99.2678,VALID,-0.0169808,VALID,19.3094,VALID,176,VALID,1.02617,
2001-03-08, 03:10:00,VALID,914.927,VALID,0,VALID,99.2589,VALID,-0.0339617,VALID,19.3126,VALID,178,VALID,0.86402,
2001-03-08, 03:11:00,VALID,914.919,VALID,0,VALID,99.2602,VALID,0,VALID,19.3099,VALID,183,VALID,0.828547,
2001-03-08, 03:12:00,VALID,914.896,VALID,0,VALID,99.2767,VALID,0,VALID,19.3029,VALID,172,VALID,0.971137,
2001-03-08, 03:13:00,VALID,914.874,VALID,0,VALID,99.2602,VALID,-0.0169808,VALID,19.2932,VALID,172,VALID,0.876953,
2001-03-08, 03:14:00,VALID,914.87,VALID,0,VALID,99.2691,VALID,0,VALID,19.2937,VALID,181,VALID,0.533789,
2001-03-08, 03:15:00,VALID,914.859,VALID,0,VALID,99.2843,VALID,0,VALID,19.283,VALID,187,VALID,0.895833,
2001-03-08, 03:16:00,VALID,914.843,VALID,0,VALID,99.2869,VALID,-0.0339617,VALID,19.2868,VALID,212,VALID,0.884816,
2001-03-08, 03:17:00,VALID,914.827,VALID,0,VALID,99.2856,VALID,0,VALID,19.2771,VALID,194,VALID,0.885045,
2001-03-08, 03:18:00,VALID,914.822,VALID,0,VALID,99.3047,VALID,0,VALID,19.2639,VALID,193,VALID,0.908454,
2001-03-08, 03:19:00,VALID,914.784,VALID,0,VALID,99.3085,VALID,-0.0339617,VALID,19.2773,VALID,186,VALID,0.904811,
2001-03-08, 03:20:00,VALID,914.782,VALID,0,VALID,99.292,VALID,-0.0169808,VALID,19.2671,VALID,188,VALID,0.716694,
2001-03-08, 03:21:00,VALID,914.766,VALID,0,VALID,99.3085,VALID,-0.0169808,VALID,19.2743,VALID,187,VALID,0.630859,
2001-03-08, 03:22:00,VALID,914.746,VALID,0,VALID,99.2983,VALID,0,VALID,19.2708,VALID,178,VALID,0.637587,
2001-03-08, 03:23:00,VALID,914.747,VALID,0,VALID,99.3047,VALID,-0.0169808,VALID,19.2644,VALID,207,VALID,0.481618,
2001-03-08, 03:24:00,VALID,914.744,VALID,0,VALID,99.306,VALID,-0.0169808,VALID,19.2579,VALID,209,VALID,0.462416,
2001-03-08, 03:25:00,VALID,914.737,VALID,0,VALID,99.3123,VALID,0,VALID,19.2512,VALID,202,VALID,0.560296,
2001-03-08, 03:26:00,VALID,914.727,VALID,0,VALID,99.3174,VALID,-0.0169808,VALID,19.2542,VALID,224,VALID,0.652043,
2001-03-08, 03:27:00,VALID,914.703,VALID,0,VALID,99.3161,VALID,0,VALID,19.2517,VALID,229,VALID,0.585537,
2001-03-08, 03:28:00,VALID,914.708,VALID,0,VALID,99.3136,VALID,-0.0169808,VALID,19.2381,VALID,239,VALID,0.488839,
2001-03-08, 03:29:00,VALID,914.672,VALID,0,VALID,99.3098,VALID,0,VALID,19.2385,VALID,230,VALID,0.762891,
2001-03-08, 03:30:00,VALID,914.682,VALID,0,VALID,99.3123,VALID,0.0169808,VALID,19.2155,VALID,206,VALID,0.691016,
2001-03-08, 03:31:00,VALID,914.671,VALID,0,VALID,99.3199,VALID,0,VALID,19.2127,VALID,210,VALID,0.608203,
2001-03-08, 03:32:00,VALID,914.669,VALID,0,VALID,99.3149,VALID,0,VALID,19.206,VALID,201,VALID,0.452492,